Location: Newark
(52.3735°N, 16.9806°E)
Time: 21:00:28
(UTC+00:00)

Envisat - Pass Details

Date: 25 September 2021
Orbit: 764 x 766 km, 98.2° (Epoch: 15 October)

Event Time Altitude Azimuth Distance (km) Brightness Sun altitude
Rises 03:54:30 0° 17° (NNE) 3,245 6.6 -8.2°
Reaches altitude 10° 03:56:52 10° 21° (NNE) 2,314 5.9 -7.9°
Maximum altitude 04:01:54 59° 101° (E) 888 3.8 -7.1°
Drops below altitude 10° 04:06:53 10° 181° (S) 2,297 5.4 -6.4°
Sets 04:09:13 0° 185° (S) 3,218 6.1 -6.0°
